Location: Unspecified
(36.4742°N, 0.0000°E)
Time: 14:35:00
(UTC+00:00)

Transit 2A - All Passes

Search period start: 04 April 2026 00:00
Search period end: 14 April 2026 00:00
Orbit: 591 x 953 km, 66.7° (Epoch: 29 March)

Date Brightness Start Highest point End Pass type
(mag) Time Alt. Az. Time Alt. Az. Time Alt. Az.
4 Apr - 01:20:04 10° SSW 01:26:22 86° ESE 01:32:39 10° NNE visible
4 Apr - 03:06:04 10° W 03:10:12 18° NW 03:14:17 10° N visible
4 Apr - 10:10:10 10° NNW 10:15:11 38° NE 10:19:42 10° SE daylight
4 Apr - 11:53:56 10° NW 11:57:50 22° WSW 12:01:28 10° SSW daylight
5 Apr - 00:43:53 10° S 00:50:01 58° ESE 00:56:09 10° NE visible
5 Apr - 02:28:23 10° WSW 02:33:28 25° NW 02:38:29 10° N visible
5 Apr - 09:34:07 10° N 09:38:34 26° NE 09:42:38 10° ESE daylight
5 Apr - 11:16:57 10° NW 11:21:41 36° WSW 11:25:59 10° S daylight
6 Apr - 00:08:00 10° S 00:13:44 39° ESE 00:19:27 10° NE visible
6 Apr - 01:51:08 10° WSW 01:56:50 35° NW 02:02:29 10° N visible
6 Apr - 08:58:18 10° N 09:01:52 18° NE 09:05:10 10° E daylight
6 Apr - 10:40:16 10° NW 10:45:26 60° WSW 10:50:04 10° SSE daylight
6 Apr - 23:32:30 10° SSE 23:37:31 26° ESE 23:42:32 10° NE visible
7 Apr - 01:14:10 10° SW 01:20:17 51° WNW 01:26:19 10° NNE visible
7 Apr - 08:23:03 10° NNE 08:25:03 12° NE 08:26:59 10° ENE daylight
7 Apr - 10:03:47 10° NNW 10:09:05 84° ENE 10:13:49 10° SSE daylight
7 Apr - 22:57:36 10° SE 23:01:21 17° ESE 23:05:08 10° ENE visible
8 Apr - 00:37:31 10° SSW 00:43:49 74° WNW 00:50:02 10° NNE visible
8 Apr - 02:24:42 10° WNW 02:27:53 14° NW 02:31:01 10° NNW visible
8 Apr - 09:27:28 10° NNW 09:32:38 52° ENE 09:37:16 10° SE daylight
8 Apr - 11:12:06 10° WNW 11:15:00 15° WSW 11:17:45 10° SW daylight
9 Apr - 00:01:08 10° SSW 00:07:24 76° ESE 00:13:38 10° NNE visible
9 Apr - 01:46:37 10° W 01:51:06 20° NW 01:55:29 10° N visible
9 Apr - 08:51:17 10° N 08:56:04 33° NE 09:00:25 10° ESE daylight
9 Apr - 10:34:43 10° NW 10:38:53 25° WSW 10:42:44 10° SSW daylight
9 Apr - 23:25:01 10° S 23:31:04 51° ESE 23:37:04 10° NE visible
10 Apr - 01:09:05 10° WSW 01:14:24 28° NW 01:19:37 10° N visible
10 Apr - 08:15:19 10° N 08:19:26 22° NE 08:23:14 10° E daylight
10 Apr - 09:57:50 10° NW 10:02:41 42° WSW 10:07:04 10° S daylight
10 Apr - 22:49:14 10° S 22:54:48 34° ESE 23:00:19 10° NE visible
11 Apr - 00:31:56 10° SW 00:37:47 39° NW 00:43:33 10° NNE visible
11 Apr - 07:39:38 10° N 07:42:41 15° NE 07:45:34 10° E daylight
11 Apr - 09:21:13 10° NNW 09:26:24 71° WSW 09:31:02 10° SSE daylight
11 Apr - 22:13:53 10° SSE 22:18:35 22° ESE 22:23:15 10° ENE visible
11 Apr - 23:55:03 10° SW 00:01:15 57° WNW 00:07:20 10° NNE visible
12 Apr - 01:43:59 10° NW 01:45:34 11° NW 01:47:09 10° NNW visible
12 Apr - 07:05:06 10° NNE 07:05:50 10° NE 07:06:33 10° NE daylight
12 Apr - 08:44:47 10° NNW 08:50:00 71° ENE 08:54:41 10° SE daylight
12 Apr - 10:31:24 10° W 10:32:06 10° W 10:32:48 10° WSW daylight
12 Apr - 21:39:18 10° SE 21:42:26 14° ESE 21:45:33 10° ENE night (unlit)
12 Apr - 23:18:28 10° SSW 23:24:48 84° WNW 23:31:01 10° NNE visible
13 Apr - 01:05:05 10° W 01:08:43 16° NW 01:12:18 10° N visible
13 Apr - 08:08:31 10° NNW 08:13:31 44° ENE 08:18:02 10° SE daylight
13 Apr - 09:52:41 10° WNW 09:56:01 18° WSW 09:59:09 10° SSW daylight
13 Apr - 22:42:10 10° SSW 22:48:24 67° ESE 22:54:33 10° NNE visible
